Погода в Умани

Погода в Умани : погода сейчас, прогноз погоды и архив. Всё, что Вы хотите узнать о погоде в Умани!

Хотите узнать прогноз погоды в Умани? Тогда Вам сюда: Погода в Умани

Поиск расширенной информации на нашем сайте:

Другие новости

Новости СМИ2

Главная страница сайта

Новости сайта

02.10.2013

Напоминаем, что на нашем новом сайте вы можете получить высокодетализированные прогнозы погоды по пунктам России, СНГ и мира (включающие важные для авиации метеовеличины, такие как направление и скорость ветра, видимость, явления погоды, количество и форма облачности, нижняя и верхняя граница облачности), а также ознакомиться с разнообразными материалами по авиационной метеорологии и подборкой полезных ссылок на эту тему.

Сайт Метеоцентр.Азия посвящён разработке технологий оптимизации авиаметеорологического обслуживания, включая проектирование и перспективное создание нескольких автоматизированных авиаметеорологических систем:
- система выпуска высокодетальных прогностических карт явлений погоды для нижнего воздушного пространства по России и ближнему зарубежью;
- система верификации прогнозов TAF (выпускаемых синоптиками официальных АМСГ РФ и ближнего зарубежья) и AUTOTAF (выпускаемых сайтом Метеоцентр.Азия) - выявление ошибок, онлайн-сопоставление с фактической погодой METAR, автоматическое внесение коррективов в прогнозы при резком отклонении фактической погоды от прогноза, подсчёт оправдываемости прогнозов по элементам и в целом;
- система обработки, анализа и отображения авиаметеорологической информации для применения провайдерами метеорологической информации.

Рекомендуем: Купить браслеты из натуральных камней в интернет магазине браслетов bestbijoux.ru.

Погода в Умани - сегодня

Время (UTC), дата Ветер
(°,м/с) 
Видим.   Явления Облачность Т
(°С)
Тd
(°С)
f(%) Тe
(°С)
Pmin
(гПа)
dP
(гПа)
Po
(мм)
O2
(г/м3)
Тmin Tmax R s Состояние
почвы
18 27.03.17 300 (СЗ) 10 км    ясно 
+7.4 -0 59 +5  1015.1  1.5  742  291    +11.6       
21 27.03.17 290 (З) 10 км    ясно 
+6.4 -0.1 63 +5  1016.3  1.1  743  292           
00 28.03.17 280 (З) 10 км    ясно 
+5.7 +1.4 74 +5  1016  -0.4  742  293           
03 28.03.17 280 (З) 10 км    8/0 средняя 
[Ac trans]
+5.4 +2.2 80 +5  1014.7  -1.3  741  293           
06 28.03.17 160 (Ю) 10 км    9/9 1020 м 
[Sc]
+7.6 +4.2 79 +7  1013.1  -1.3  740  290  +5         
09 28.03.17 270 (З) 20000 м    3/0 верхняя 
[Ci fib]
+15 +4 48 +15  1011.3  -1.1  739  282           
12 28.03.17 290 (З) 14{20}  20000 м    6/6 1000 м 
[Cu med, cong]
+16.3 +4.5 45 +15  1011.1  -0.1  739  280           
15 28.03.17 300 (СЗ) 12  20000 м    3/0 верхняя 
[Ci fib]
+15.7 +4.7 48 +14  1011.8  0.7  740  281           
18 28.03.17 320 (СЗ) н/о    ясно 
+12.3 +2.7 52 +13  1014.7  2.4  742  286    +16.8       
21 28.03.17 320 (СЗ) н/о    ясно 
+8.5 +1.1 60 +10  1017.3  2.3  743  290           
00 29.03.17 290 (З) н/о    ясно 
+5.4 -0.1 68 +6  1018.3  0.8  744  294           
03 29.03.17 290 (З) н/о    ясно 
+4.6 +2.4 86 +5  1019.5  0.9  745  295           
06 29.03.17 300 (СЗ) 10 км    3/0 верхняя 
[Ci ing]
+8.8 +3.2 68 +9  1019.6  0.5  745  290  +3.5         
09 29.03.17 250 (З) 10 км    8/0 верхняя 
[Ci fib]
+15.4 +3.4 45 +15  1018.6  -0.4  745  284           
12 29.03.17 260 (З) 10 км    4/0 верхняя 
[Ci fib]
+18.4 +3.8 38 +18  1015.9  -2.3  743  280           
15 29.03.17 280 (З) 10 км    3/3 600 м 
[Cu hum]
+19.3 +2.5 33 +20  1013.2  -2.6  741  279           
18 29.03.17 290 (З) н/о    6/6 600 м 
[Sc]
+15.3 +4.7 49 +16  1013  -0.5  741  282    +19.6       
21 29.03.17 230 (ЮЗ) н/о    10/10 800 м 
[Sc]
+15.1 +5 51 +16  1012.4  -0.6  740  282           
00 30.03.17 290 (З) н/о  слаб. ливневой дождь  10/10 450 м кучево-дожд. 
[Cb calv]
+11.1 +5 66 +10  1013.8  741  286      0.0     
03 30.03.17 290 (З) н/о  {ливн. осадки}  10/10 840 м 
[Sc]
+8.3 +5.7 84 +6  1015  0.9  742  289           
06 30.03.17 280 (З) 10 км  {ливн. осадки}  9/9 1020 м 
[Sc]
+9.6 +5 73 +8  1016.9  2.1  743  288  +8.2    0.0     
09 30.03.17 330 (СЗ) 10 км    9/9 1000 м 
[Sc]
+10.2 +4.3 67 +9  1019.8  2.7  745  289           
12 30.03.17 350 (С) 12  20000 м    1/1 600 м 
[Cu hum]
+10.5 -1.9 42 +8  1022.1  2.3  747  290           
15 30.03.17 330 (СЗ) 20000 м    3/0 верхняя 
[Ci fib]
+10 -4.7 35 +8  1023.9  1.6  748  291           
18 30.03.17 350 (С) н/о    ясно 
+5.5 -8.4 36 +4  1027.6  3.3  751  297    +11.1       
Время (UTC), дата Ветер
(°,м/с) 
Видим.   Явления Облачность Т
(°С)
Тd
(°С)
f(%) Тe
(°С)
Pmin
(гПа)
dP
(гПа)
Po
(мм)
O2
(г/м3)
Тmin Tmax R s Состояние
почвы

Для получения пояснительной информации подведите курсор к названию столбца.

ПОГОДА в Умани - архив

Всё, что Вы хотите узнать о погоде в Умани - удобно и подробно!

Выберите нужную дату (начиная с 1 января 2015* года) и нажмите кнопку "Найти".
Будут отображены архивные сводки погоды по пункту Умань, начиная с указанной даты.


Отображать данные в формате CSV (для использования в таблицах Excel)


Внимание! Наш архив погоды предназначен исключительно для личного некоммерческого использования в познавательных целях. Если Вам необходимы официальные справки о состоянии погоды (для производственных, юридических, коммерческих и т.п. целей), обращайтесь в органы Росгидромета.

*Примечание: данная дата относится к архиву по метеостанциям СССР (Россия, СНГ, Балтия).
Архив по метеостанциям Зарубежной Европы и Азии (кроме Китая) хранится 10 дней, по другим регионам земного шара (Китай, Африка, Америка, Австралия, Океания) - 1 день.

Умань - район местоположения метеостанции


Название, широта, долгота, высота метеостанции:
Умань 48.8°ш. 30.2°д. 216 м над ур. моря [Украина]

Дополнительная информация

В oтличие oт бoльшинства пoгoдных сайтoв мы публикуем пoдрoбную метеoинфoрмацию в детальнoм прoфессиoнальнoм фoрмате.

Характеристики температуры и влажнoсти вoздуха измеряются на высoте 2 м в тени вдали oт зданий и деревьев.
Скoрoсть ветра измеряется на высoте 10 м (на урoвне рoста челoвека скoрoсть ветра ниже в 1.5-2 раза). Если метеoстанция нахoдится в гoрoде или в лесу, тo скoрoсть ветра занижена на 2-4 м/с пo сравнению с oткрытым местoм. Скoрoсть ветра над акватoриями крупных рек и oзёр, а также на вершинах хoлмoв на 2-5 м/с выше, чем в oбычных услoвиях.
Атмoсфернoе давление в разных тoчках местнoсти мoжет значительнo oтличаться oт давления на метеoстанции, в зависимoсти oт услoвий рельефа (при пoдъёме на 10 м давление пoнижается примернo на 1 мм рт.ст.).